Location: Esp�n
(42.4593°N, 0.2047°W)
Time: 21:50:19
(UTC+00:00)

CZ-4B R/B - Pass Details

Date: 07 June 2020
Orbit: 703 x 802 km, 98.8° (Epoch: 04 July)

Event Time Altitude Azimuth Distance (km) Brightness Sun altitude
Rises 02:34:00 0° 7° (N) 3,302 7.9 -15.7°
Reaches altitude 10° 02:36:24 10° 1° (N) 2,376 6.9 -15.4°
Maximum altitude 02:41:23 45° 291° (WNW) 1,092 4.1 -14.9°
Enters shadow 02:44:31 21° 230° (SW) 1,722 4.7 -14.5°
